Powrót do katalogu

ONEWEB-0117

AktywnyŁącznośćPO
NORAD 47263·PAYLOAD·🇬🇧 United Kingdom

Wystrzelony Dec 18, 2020 z Vostochny Cosmodrome

Loading…

Następne Przeloty (najbliższe 24 godziny)

TLE

ŚwieżeSource: CelesTrak SupGP

Epoka: Sep 14, 2026, 23:06 UTC

1 47263C 20100F   26257.96303657  .00000200  00000+0  55713-3 0  2578
2 47263  87.8996 332.8302 0001936 100.1791 306.3093 13.12445725    19

Śledź ONEWEB-0117 w czasie rzeczywistym z AllMySat

Download on the App Store